Location: Pebble Beach Sunset Acres
(33.0837°N, 96.4508°W)
Time: 16:15:25
(UTC+00:00)

DELTA 2 R/B (1) - Pass Details

Date: 26 June 2022
Orbit: 790 x 802 km, 39.6° (Epoch: 18 August)

Event Time Altitude Azimuth Distance (km) Brightness Sun altitude
Rises 02:20:42 0° 281° (W) 3,293 8.2 -8.3°
Reaches altitude 10° 02:23:18 10° 288° (WNW) 2,365 7.4 -8.8°
Maximum altitude 02:28:36 42° 359° (N) 1,120 4.7 -9.7°
Drops below altitude 10° 02:33:55 10° 70° (ENE) 2,371 5.7 -10.6°
Enters shadow 02:36:27 - 77° (ENE) 3,272 6.4 -11.0°
